Location: Boiro
(42.6475°N, 8.8834°W)
Time: 00:48:22
(UTC+01:00)

Vanguard 2 - Visible Passes

Search period start: 30 November 2021 00:00
Search period end: 10 December 2021 00:00
Orbit: 554 x 2936 km, 32.9° (Epoch: 29 November)

Date Brightness Start Highest point End Pass type
(mag) Time Alt. Az. Time Alt. Az. Time Alt. Az.
30 Nov 10.5 20:12:12 10° W 20:20:51 37° SSW 20:33:48 10° SE visible
30 Nov 11.3 22:22:44 10° WSW 22:31:01 20° SSW 22:36:36 16° S visible
01 Dec 9.9 18:21:57 10° WSW 18:28:53 43° S 18:40:06 10° ESE visible
01 Dec 10.7 20:30:08 10° WSW 20:38:30 31° SSW 20:50:35 10° SSE visible
01 Dec 11.6 22:42:33 10° WSW 22:48:35 14° SW 22:54:45 11° S visible
02 Dec 10.1 18:39:35 10° WSW 18:46:31 39° S 18:57:31 10° SE visible
02 Dec 10.9 20:48:18 10° WSW 20:56:10 25° SSW 21:06:58 10° SSE visible
03 Dec 10.3 18:57:19 10° WSW 19:04:10 34° SSW 19:14:43 10° SE visible
03 Dec 11.2 21:06:55 10° WSW 21:13:49 19° SSW 21:22:44 10° SSE visible
04 Dec 10.6 19:15:11 10° WSW 19:21:50 29° SSW 19:31:38 10° SE visible
04 Dec 11.5 21:26:27 10° WSW 21:31:27 14° SSW 21:37:24 10° S visible
05 Dec 10.8 19:33:18 10° WSW 19:39:30 23° SSW 19:48:10 10° SSE visible
06 Dec 11.1 19:51:50 10° WSW 19:57:10 18° SSW 20:04:06 10° SSE visible
07 Dec 11.4 20:11:25 10° SW 20:14:51 12° SSW 20:18:49 10° S visible
09 Dec 11.1 18:37:19 10° SW 18:41:03 15° SSW 18:45:42 10° S visible
